Location: Fornova de Taro
(44.7000°N, 10.1000°E)
Time: 19:29:19
(UTC+00:00)

SL-16 R/B - Pass Details

Date: 26 May 2022
Orbit: 985 x 1006 km, 99.6° (Epoch: 02 July)

Event Time Altitude Azimuth Distance (km) Brightness Sun altitude
Exits shadow 01:14:42 20° 167° (SSE) 2,104 3.8 -18.9°
Maximum altitude 01:19:10 84° 254° (WSW) 1,009 2.5 -18.5°
Drops below altitude 10° 01:25:27 10° 344° (NNW) 2,782 5.5 -17.9°
Sets 01:27:57 0° 345° (NNW) 3,739 6.2 -17.7°
